Simultaneous Nadir Overpasses (SNOs) Predictions

Prediction of SNOs between METOP-A and NOAA-19 Satellite Orbit:

Table of predicted SNOs for the next 14.0 days since TLE Epoch: 12/24/2011
Index Date Time (METOP-A) METOP-A Lat,Lon NOAA-19 Lat,Lon Distance(km) Time Diff (sec)
1 12/30/2011 22:22:56 75.32,-157.48 75.31,-169.08 326.60 36
2 12/30/2011 23:13:54 -74.53, 7.59 -74.55, 0.40 212.85 53
3 12/31/2011 00:04:56 73.45, 172.24 73.45, 170.41 58.15 69
4 12/31/2011 00:55:46 -73.03, -21.37 -73.01, -21.33 2.35 71
5 12/31/2011 01:46:27 72.98, 145.86 72.97, 145.96 3.48 44
6 12/31/2011 02:37:09 -72.96, -46.85 -72.98, -46.79 2.83 29
7 12/31/2011 03:27:49 72.96, 120.49 72.94, 120.50 2.28 1
8 12/31/2011 04:18:31 -72.95, -72.22 -72.95, -72.25 1.16 14
9 12/31/2011 05:09:12
